Time,TemperatureF,DewpointF,PressureIn,WindDirection,WindDirectionDegrees,WindSpeedMPH,WindSpeedGustMPH,Humidity,HourlyPrecipIn,Conditions,Clouds,dailyrainin,SolarRadiationWatts/m^2,SoftwareType,DateUTC
2013-08-01 00:03:00,64.0,59.0,-100.00,West,273,6.0,8.0,83,0.00,,,0.00,0.000000,,2013-08-01 04:03:00,
2013-08-01 00:13:00,64.0,59.0,-100.00,West,273,6.0,8.0,83,0.00,,,0.00,0.000000,,2013-08-01 04:13:00,
2013-08-01 00:43:00,63.0,58.0,-100.00,West,269,5.0,9.0,85,0.00,,,0.00,0.000000,,2013-08-01 04:43:00,
2013-08-01 00:53:00,63.0,58.0,-100.00,West,269,5.0,9.0,85,0.00,,,0.00,0.000000,,2013-08-01 04:53:00,
2013-08-01 01:03:00,63.0,58.0,-100.00,West,269,5.0,9.0,85,0.00,,,0.00,0.000000,,2013-08-01 05:03:00,
2013-08-01 01:13:00,63.0,58.0,-100.00,West,269,5.0,9.0,85,0.00,,,0.00,0.000000,,2013-08-01 05:13:00,
2013-08-01 01:43:00,63.0,59.0,-100.00,West,275,4.0,7.0,88,0.00,,,0.00,0.000000,,2013-08-01 05:43:00,
2013-08-01 01:53:00,63.0,59.0,-100.00,West,275,4.0,7.0,88,0.00,,,0.00,0.000000,,2013-08-01 05:53:00,
2013-08-01 02:02:00,63.0,59.0,-100.00,West,275,4.0,7.0,88,0.00,,,0.00,0.000000,,2013-08-01 06:02:00,
2013-08-01 02:12:00,63.0,59.0,-100.00,West,275,4.0,7.0,88,0.00,,,0.00,0.000000,,2013-08-01 06:12:00,
2013-08-01 02:43:00,63.0,61.0,-100.00,West,272,4.0,6.0,92,0.00,,,0.00,0.000000,,2013-08-01 06:43:00,
2013-08-01 02:53:00,63.0,61.0,-100.00,West,272,4.0,6.0,92,0.00,,,0.00,0.000000,,2013-08-01 06:53:00,
2013-08-01 03:03:00,63.0,61.0,-100.00,West,272,4.0,6.0,92,0.00,,,0.00,0.000000,,2013-08-01 07:03:00,
2013-08-01 03:12:00,63.0,61.0,-100.00,West,272,4.0,6.0,92,0.00,,,0.00,0.000000,,2013-08-01 07:12:00,
2013-08-01 03:43:00,63.0,61.0,-100.00,West,271,6.0,10.0,93,0.00,,,0.00,0.000000,,2013-08-01 07:43:00,
2013-08-01 03:55:00,63.0,61.0,-100.00,West,271,6.0,10.0,93,0.00,,,0.00,0.000000,,2013-08-01 07:55:00,
2013-08-01 04:09:00,63.0,61.0,-100.00,West,271,6.0,10.0,93,0.00,,,0.00,0.000000,,2013-08-01 08:09:00,
2013-08-01 04:16:00,63.0,61.0,-100.00,West,272,5.0,9.0,94,0.00,,,0.00,0.000000,,2013-08-01 08:16:00,
2013-08-01 04:48:00,63.0,61.0,-100.00,West,272,5.0,9.0,94,0.00,,,0.00,0.000000,,2013-08-01 08:48:00,
2013-08-01 05:11:00,63.0,61.0,-100.00,West,272,5.0,9.0,94,0.00,,,0.00,0.000000,,2013-08-01 09:11:00,
2013-08-01 05:16:00,62.0,61.0,-100.00,WNW,288,7.0,12.0,96,0.00,,,0.00,0.000000,,2013-08-01 09:16:00,
2013-08-01 06:00:00,62.0,61.0,-100.00,WNW,288,7.0,12.0,96,0.00,,,0.00,0.000000,,2013-08-01 10:00:00,
2013-08-01 06:11:00,62.0,61.0,-100.00,WNW,288,7.0,12.0,96,0.00,,,0.00,0.000000,,2013-08-01 10:11:00,
2013-08-01 07:16:00,62.0,61.0,-100.00,WNW,288,6.0,9.0,97,0.00,,,0.00,8.000000,,2013-08-01 11:16:00,
2013-08-01 07:51:00,62.0,61.0,-100.00,WNW,288,6.0,9.0,97,0.00,,,0.00,8.000000,,2013-08-01 11:51:00,
2013-08-01 08:11:00,62.0,61.0,-100.00,WNW,288,6.0,9.0,97,0.00,,,0.00,8.000000,,2013-08-01 12:11:00,
2013-08-01 09:16:00,62.0,61.0,-100.00,NNW,332,5.0,11.0,97,0.00,,,0.00,43.000000,,2013-08-01 13:16:00,
2013-08-01 09:57:00,62.0,61.0,-100.00,NNW,332,5.0,11.0,97,0.00,,,0.00,43.000000,,2013-08-01 13:57:00,
2013-08-01 13:16:00,66.0,63.0,-100.00,North,356,5.0,14.0,89,-99.99,,,0.01,192.000000,,2013-08-01 17:16:00,
2013-08-01 14:12:00,66.0,63.0,-100.00,North,356,5.0,14.0,89,-99.99,,,0.01,192.000000,,2013-08-01 18:12:00,
2013-08-01 15:02:00,72.0,64.0,-100.00,North,9,7.0,13.0,75,0.00,,,0.01,616.000000,,2013-08-01 19:02:00,
2013-08-01 15:16:00,77.0,63.0,-100.00,NNW,342,5.0,11.0,61,0.00,,,0.01,717.000000,,2013-08-01 19:16:00,
2013-08-01 16:10:00,77.0,63.0,-100.00,NNW,342,5.0,11.0,61,0.00,,,0.01,717.000000,,2013-08-01 20:10:00,
2013-08-01 16:52:00,72.0,55.0,-100.00,NNE,21,8.0,13.0,56,0.00,,,0.01,454.000000,,2013-08-01 20:52:00,
2013-08-01 16:58:00,72.0,55.0,-100.00,NNE,21,8.0,13.0,56,0.00,,,0.01,454.000000,,2013-08-01 20:58:00,
2013-08-01 17:04:00,72.0,55.0,-100.00,NNE,21,8.0,13.0,56,0.00,,,0.01,454.000000,,2013-08-01 21:04:00,
2013-08-01 17:16:00,74.0,61.0,-100.00,NNE,12,4.0,11.0,63,0.00,,,0.01,455.000000,,2013-08-01 21:16:00,
2013-08-01 17:43:00,74.0,61.0,-100.00,NNE,12,4.0,11.0,63,0.00,,,0.01,455.000000,,2013-08-01 21:43:00,
2013-08-01 17:54:00,74.0,61.0,-100.00,NNE,12,4.0,11.0,63,0.00,,,0.01,455.000000,,2013-08-01 21:54:00,
2013-08-01 18:12:00,74.0,61.0,-100.00,NNE,12,4.0,11.0,63,0.00,,,0.01,455.000000,,2013-08-01 22:12:00,
2013-08-01 18:16:00,74.0,60.0,-100.00,NNE,24,7.0,12.0,62,0.00,,,-99.99,314.000000,,2013-08-01 22:16:00,
2013-08-01 18:49:00,74.0,60.0,-100.00,NNE,24,7.0,12.0,62,0.00,,,-99.99,314.000000,,2013-08-01 22:49:00,
2013-08-01 19:00:00,74.0,60.0,-100.00,NNE,24,7.0,12.0,62,0.00,,,-99.99,314.000000,,2013-08-01 23:00:00,
2013-08-01 19:12:00,74.0,60.0,-100.00,NNE,24,7.0,12.0,62,0.00,,,-99.99,314.000000,,2013-08-01 23:12:00,
2013-08-01 19:16:00,71.0,57.0,-100.00,NNE,23,6.0,12.0,62,0.00,,,0.01,194.000000,,2013-08-01 23:16:00,
2013-08-01 19:53:00,71.0,57.0,-100.00,NNE,23,6.0,12.0,62,0.00,,,0.01,194.000000,,2013-08-01 23:53:00,
2013-08-01 20:02:00,71.0,57.0,-100.00,NNE,23,6.0,12.0,62,0.00,,,0.01,194.000000,,2013-08-02 00:02:00,
2013-08-01 20:09:00,71.0,57.0,-100.00,NNE,23,6.0,12.0,62,0.00,,,0.01,194.000000,,2013-08-02 00:09:00,
2013-08-01 20:16:00,67.0,56.0,-100.00,NNE,31,5.0,14.0,69,0.00,,,0.01,40.000000,,2013-08-02 00:16:00,
2013-08-01 20:53:00,67.0,56.0,-100.00,NNE,31,5.0,14.0,69,0.00,,,0.01,40.000000,,2013-08-02 00:53:00,
2013-08-01 21:02:00,67.0,56.0,-100.00,NNE,31,5.0,14.0,69,0.00,,,0.01,40.000000,,2013-08-02 01:02:00,
2013-08-01 21:16:00,64.0,54.0,-100.00,NE,37,4.0,12.0,71,0.00,,,0.01,1.000000,,2013-08-02 01:16:00,
2013-08-01 21:50:00,64.0,54.0,-100.00,NE,37,4.0,12.0,71,0.00,,,0.01,1.000000,,2013-08-02 01:50:00,
2013-08-01 22:09:00,64.0,54.0,-100.00,NE,37,4.0,12.0,71,0.00,,,0.01,1.000000,,2013-08-02 02:09:00,
2013-08-01 22:45:00,62.0,54.0,-100.00,NNE,28,3.0,10.0,76,0.00,,,0.01,0.000000,,2013-08-02 02:45:00,
2013-08-01 22:55:00,62.0,54.0,-100.00,NNE,28,3.0,10.0,76,0.00,,,0.01,0.000000,,2013-08-02 02:55:00,
2013-08-01 23:11:00,62.0,54.0,-100.00,NNE,28,3.0,10.0,76,0.00,,,0.01,0.000000,,2013-08-02 03:11:00,
2013-08-01 23:53:00,61.0,54.0,-100.00,NNE,13,2.0,5.0,79,0.00,,,0.01,0.000000,,2013-08-02 03:53:00,